Lacon, IL

3:07 PM CST on December 08, 2019 (GMT -0600)
Lacon

Weather History for KC75 - October, 2019

Change the Weather History Date:

Thursday, October 3, 2019

  Actual Average (WUND) Record (WUND)
Temperature  
Mean Temperature 56 °F -  
Max Temperature 64 °F - - (-1)
Min Temperature 47 °F - - (-1)
Degree Days  
Heating Degree Days 9    
Growing Degree Days 6 (Base 50)    
Moisture  
Dew Point 54 °F    
Average Humidity 83    
Maximum Humidity 99    
Minimum Humidity 65    
Precipitation  
Precipitation 0.14 in - - ()
Sea Level Pressure  
Sea Level Pressure 30.10 in    
Wind  
Wind Speed 6 mph (NW)    
Max Wind Speed 16 mph    
Max Gust Speed 22 mph    
Visibility 9 miles    
Events Rain , Thunderstorm    
Averages and records for this station are not official NWS values.
T = Trace of Precipitation, MM = Missing Value Source: NWS Daily Summary

Daily Weather History Graph

Daily Weather History Graph

Search for Another Location

Airport or City:

Astronomy

Oct. 03, 2019 Rise Set
Actual Time 6:55 AM CDT 6:36 PM CDT
Civil Twilight 6:28 AM CDT 7:03 PM CDT
Nautical Twilight 5:56 AM CDT 7:35 PM CDT
Astronomical Twilight 5:24 AM CDT 8:07 PM CDT
Moon 12:29 PM CDT (10/3) 10:12 PM CDT (10/3)
Length of Visible Light 12h 35m
Length of Day
11h 40m
Waxing Crescent, 30% of the Moon is Illuminated
Oct 3
Waxing Crescent
Oct 5
First Quarter
Oct 13
Full
Oct 21
Last Quarter
Oct 27
New

Hourly Weather History & Observations

Time (CDT) Temp. Dew Point Humidity Pressure Visibility Wind Dir Wind Speed Gust Speed Precip Events Conditions
12:15 AM 61.9 °F 61.3 °F 98% 29.87 in 4.0 mi ESE 9.2 mph - 0.05 in Rain Rain
12:35 AM 61.9 °F 61.3 °F 98% 29.89 in 5.0 mi SSE 3.5 mph - 0.07 in Rain , Thunderstorm Rain
12:55 AM 62.6 °F 61.7 °F 97% 29.86 in 4.0 mi Calm Calm - 0.12 in Rain Heavy Rain
1:15 AM 62.2 °F 61.7 °F 98% 29.89 in 7.0 mi Calm Calm - 0.01 in Rain Light Rain
1:35 AM 62.2 °F 61.7 °F 98% 29.88 in 5.0 mi Calm Calm - 0.01 in   Scattered Clouds
1:55 AM 62.6 °F 61.9 °F 97% 29.89 in 5.0 mi Calm Calm - 0.02 in   Mostly Cloudy
2:15 AM 62.2 °F 61.9 °F 99% 29.90 in 7.0 mi Calm Calm - N/A   Mostly Cloudy
2:35 AM 62.6 °F 61.9 °F 97% 29.90 in 7.0 mi Calm Calm - N/A   Scattered Clouds
2:55 AM 62.6 °F 62.1 °F 98% 29.91 in 5.0 mi Calm Calm - N/A Rain Rain
3:15 AM 62.8 °F 62.6 °F 99% 29.91 in 5.0 mi Calm Calm - N/A Rain Light Rain
3:35 AM 63.3 °F 63.0 °F 99% 29.92 in 5.0 mi Calm Calm - N/A   Overcast
3:55 AM 63.5 °F 63.1 °F 99% 29.93 in 4.0 mi Calm Calm - N/A   Overcast
4:15 AM 64.4 °F 64.2 °F 99% 29.93 in 10.0 mi Calm Calm - N/A   Overcast
4:35 AM 64.9 °F 64.4 °F 98% 29.93 in 10.0 mi West 3.5 mph - N/A   Overcast
4:55 AM 64.8 °F 64.0 °F 98% 29.95 in 10.0 mi NW 6.9 mph - N/A   Overcast
5:15 AM 64.0 °F 62.6 °F 95% 29.97 in 10.0 mi WNW 9.2 mph 17.3 mph N/A   Overcast
5:35 AM 63.3 °F 61.7 °F 94% 29.97 in 10.0 mi WNW 6.9 mph - N/A   Overcast
5:55 AM 63.0 °F 61.5 °F 95% 29.98 in 10.0 mi WNW 8.1 mph - N/A   Overcast
6:15 AM 62.6 °F 61.0 °F 94% 29.99 in 10.0 mi WNW 5.8 mph - N/A   Overcast
6:35 AM 62.6 °F 61.0 °F 94% 29.99 in 10.0 mi WNW 6.9 mph - N/A   Overcast
6:55 AM 62.6 °F 60.8 °F 94% 30.01 in 10.0 mi WNW 4.6 mph - N/A   Overcast
7:15 AM 62.6 °F 60.8 °F 94% 30.01 in 10.0 mi WNW 8.1 mph - N/A   Overcast
7:35 AM 61.0 °F 59.0 °F 93% 30.03 in 10.0 mi West 12.7 mph 18.4 mph N/A   Overcast
7:55 AM 60.1 °F 58.3 °F 94% 30.03 in 10.0 mi WNW 8.1 mph 17.3 mph N/A   Overcast
8:15 AM 59.2 °F 57.7 °F 95% 30.05 in 7.0 mi WNW 11.5 mph 17.3 mph N/A   Overcast
8:35 AM 58.8 °F 56.5 °F 92% 30.07 in 10.0 mi WNW 11.5 mph 18.4 mph N/A   Overcast
8:55 AM 58.3 °F 56.5 °F 94% 30.08 in 4.0 mi West 15.0 mph 18.4 mph N/A   Overcast
9:15 AM 57.2 °F 54.7 °F 91% 30.09 in 10.0 mi West 15.0 mph 21.9 mph N/A   Overcast
9:35 AM 56.7 °F 54.0 °F 91% 30.10 in 5.0 mi West 9.2 mph 17.3 mph N/A   Overcast
9:55 AM 56.7 °F 53.4 °F 89% 30.11 in 10.0 mi NW 12.7 mph 18.4 mph N/A   Overcast
10:15 AM 56.3 °F 52.5 °F 87% 30.11 in 10.0 mi WNW 9.2 mph 18.4 mph N/A   Overcast
10:35 AM 57.9 °F 53.1 °F 84% 30.11 in 10.0 mi NW 9.2 mph 19.6 mph N/A   Overcast
10:55 AM 59.5 °F 52.9 °F 79% 30.12 in 10.0 mi NW 12.7 mph 18.4 mph N/A   Overcast
11:15 AM 59.5 °F 51.6 °F 75% 30.13 in 10.0 mi WNW 13.8 mph 18.4 mph N/A   Overcast
11:35 AM 60.3 °F 51.1 °F 72% 30.12 in 10.0 mi WNW 10.4 mph 19.6 mph N/A   Mostly Cloudy
11:55 AM 62.2 °F 51.8 °F 69% 30.13 in 10.0 mi WNW 16.1 mph 20.7 mph N/A   Mostly Cloudy
12:15 PM 61.0 °F 50.7 °F 69% 30.13 in 10.0 mi NW 10.4 mph 19.6 mph N/A   Scattered Clouds
12:35 PM 61.0 °F 50.2 °F 68% 30.14 in 10.0 mi NW 12.7 mph 17.3 mph N/A   Scattered Clouds
12:55 PM 60.8 °F 50.2 °F 68% 30.13 in 10.0 mi NW 10.4 mph 18.4 mph N/A   Scattered Clouds
1:15 PM 60.3 °F 49.3 °F 67% 30.14 in 10.0 mi NW 11.5 mph 18.4 mph N/A   Scattered Clouds
1:35 PM 60.1 °F 49.3 °F 67% 30.14 in 10.0 mi WNW 10.4 mph 16.1 mph N/A   Scattered Clouds
1:55 PM 61.3 °F 50.5 °F 68% 30.14 in 10.0 mi NW 8.1 mph - N/A   Mostly Cloudy
2:15 PM 60.6 °F 49.3 °F 66% 30.13 in 10.0 mi NW 10.4 mph - N/A   Scattered Clouds
2:35 PM 60.1 °F 49.8 °F 69% 30.14 in 10.0 mi NNW 12.7 mph 18.4 mph N/A   Clear
2:55 PM 59.0 °F 48.4 °F 68% 30.15 in 10.0 mi WNW 11.5 mph 17.3 mph N/A   Clear
3:15 PM 60.1 °F 49.5 °F 68% 30.16 in 10.0 mi NW 9.2 mph - N/A   Scattered Clouds
3:35 PM 59.4 °F 49.1 °F 69% 30.17 in 10.0 mi NW 10.4 mph - N/A   Scattered Clouds
3:55 PM 59.9 °F 48.9 °F 67% 30.17 in 10.0 mi WNW 8.1 mph - N/A   Scattered Clouds
4:15 PM 60.3 °F 49.1 °F 67% 30.17 in 10.0 mi NW 10.4 mph - N/A   Mostly Cloudy
4:35 PM 59.5 °F 48.2 °F 66% 30.17 in 10.0 mi NNW 11.5 mph - N/A   Scattered Clouds
4:55 PM 59.4 °F 47.7 °F 65% 30.18 in 10.0 mi NW 10.4 mph 17.3 mph N/A   Scattered Clouds
5:15 PM 59.0 °F 47.8 °F 66% 30.19 in 10.0 mi NW 9.2 mph 16.1 mph N/A   Clear
5:35 PM 58.8 °F 48.2 °F 68% 30.19 in 10.0 mi NNW 10.4 mph - N/A   Clear
5:55 PM 58.1 °F 47.5 °F 68% 30.21 in 10.0 mi NW 6.9 mph - N/A   Scattered Clouds
6:15 PM 57.7 °F 47.5 °F 69% 30.21 in 10.0 mi NW 8.1 mph 17.3 mph N/A   Scattered Clouds
6:35 PM 56.8 °F 47.5 °F 71% 30.21 in 10.0 mi NW 6.9 mph - N/A   Scattered Clouds
6:55 PM 55.9 °F 47.8 °F 74% 30.21 in 10.0 mi NNW 4.6 mph - N/A   Clear
7:15 PM 54.9 °F 47.8 °F 77% 30.23 in 10.0 mi NW 4.6 mph - N/A   Clear
7:35 PM 54.7 °F 47.5 °F 77% 30.23 in 10.0 mi NNW 6.9 mph - N/A   Clear
7:55 PM 54.5 °F 47.3 °F 77% 30.23 in 10.0 mi NNW 6.9 mph - N/A   Clear
8:15 PM 53.8 °F 46.8 °F 77% 30.25 in 10.0 mi NNW 5.8 mph - N/A   Clear
8:35 PM 53.1 °F 46.8 °F 79% 30.25 in 10.0 mi NNW 8.1 mph - N/A   Clear
8:55 PM 52.3 °F 46.6 °F 81% 30.25 in 10.0 mi NNW 5.8 mph - N/A   Clear
9:15 PM 52.3 °F 46.8 °F 81% 30.26 in 10.0 mi NNW 3.5 mph - N/A   Clear
9:35 PM 52.3 °F 46.6 °F 81% 30.27 in 10.0 mi NNW 5.8 mph - N/A   Clear
9:55 PM 51.8 °F 46.0 °F 81% 30.28 in 10.0 mi NNW 4.6 mph - N/A   Clear
10:15 PM 50.9 °F 46.0 °F 83% 30.28 in 10.0 mi NNW 5.8 mph - N/A   Clear
10:35 PM 50.5 °F 45.9 °F 84% 30.28 in 10.0 mi Calm Calm - N/A   Clear
10:55 PM 50.0 °F 45.9 °F 86% 30.29 in 10.0 mi NNW 4.6 mph - N/A   Clear
11:15 PM 49.5 °F 45.7 °F 87% 30.29 in 10.0 mi NNW 3.5 mph - N/A   Clear
11:35 PM 48.6 °F 45.5 °F 89% 30.29 in 10.0 mi Calm Calm - N/A   Clear
11:55 PM 47.7 °F 45.5 °F 92% 30.29 in 10.0 mi Calm Calm - N/A   Clear